Date,TemperatureHighF,TemperatureAvgF,TemperatureLowF,DewpointHighF,DewpointAvgF,DewpointLowF,HumidityHigh,HumidityAvg,HumidityLow,PressureMaxIn,PressureMinIn,WindSpeedMaxMPH,WindSpeedAvgMPH,GustSpeedMaxMPH,PrecipitationSumIn
2013-1-1,65,56,50,54,50,44,89,78,65,30.02,29.78,3,0,7,0.00
2013-1-2,64,56,48,58,52,45,95,85,76,30.01,29.74,4,1,10,0.00
2013-1-3,48,45,38,46,42,36,96,92,85,30.12,29.96,3,0,6,0.09
2013-1-4,57,42,31,41,34,28,98,77,36,30.20,30.08,4,0,6,0.01
2013-1-5,54,40,30,37,32,25,94,74,35,30.26,30.14,3,0,5,0.00
2013-1-6,54,48,40,46,43,37,96,83,64,30.14,29.94,2,0,4,0.00
2013-1-7,60,48,38,44,38,30,95,71,37,30.25,30.00,5,2,13,0.00
2013-1-8,70,53,42,54,45,34,94,75,55,30.25,30.17,5,1,14,0.00
2013-1-9,75,60,49,60,55,48,96,84,56,30.24,30.17,4,1,11,0.00
2013-1-10,70,60,54,59,51,36,99,74,44,30.31,30.23,9,3,19,0.00
2013-1-11,75,62,55,66,58,46,99,88,69,30.23,30.03,6,1,14,0.14
2013-1-12,81,67,60,65,62,57,100,84,51,30.05,29.97,4,1,10,0.00
2013-1-13,76,65,59,64,60,58,99,86,58,30.03,29.94,5,1,11,0.00
2013-1-14,80,66,57,66,61,57,100,86,56,30.05,29.96,5,1,10,0.01
2013-1-15,78,66,59,64,62,58,100,88,61,30.02,29.89,3,1,8,0.00
2013-1-16,80,69,63,65,62,60,100,82,50,29.91,29.80,7,2,16,0.00
2013-1-17,76,64,45,66,58,40,96,81,61,29.89,29.59,14,4,27,0.11
2013-1-18,58,45,36,40,32,23,91,65,27,30.35,29.89,7,2,14,0.00
2013-1-19,63,46,33,45,37,30,94,73,43,30.34,30.07,3,0,6,0.00
2013-1-20,68,52,42,48,38,26,99,66,21,30.07,29.87,8,2,13,0.00
2013-1-21,66,52,35,47,35,27,95,59,24,29.93,29.78,6,2,12,0.00
2013-1-22,52,44,32,33,25,16,83,50,26,30.10,29.85,5,1,11,0.00
2013-1-23,49,38,28,35,20,5,89,54,19,30.23,30.00,5,1,12,0.00
2013-1-24,59,45,29,43,29,8,76,55,35,30.35,29.89,9,4,16,0.00
2013-1-25,41,34,26,34,20,6,76,58,39,30.34,30.00,5,2,10,0.00
2013-1-26,58,43,34,37,31,25,82,64,40,30.20,29.96,4,1,12,0.00
2013-1-27,52,40,30,35,30,24,87,71,48,30.38,30.20,7,2,15,0.00
2013-1-28,62,46,35,54,41,30,94,81,60,30.34,30.13,3,0,7,0.00
2013-1-29,77,59,43,63,54,42,100,86,57,30.13,29.98,6,1,11,0.00
2013-1-30,72,67,62,66,63,61,98,87,77,29.98,29.45,13,6,29,0.00
2013-1-31,70,51,43,65,33,20,94,54,25,29.98,29.45,17,6,26,0.14
2013-2-1,54,44,31,32,22,4,61,44,15,30.22,29.95,11,4,20,0.00
2013-2-2,54,40,26,41,27,10,92,62,44,30.25,29.92,5,1,10,0.00
2013-2-3,59,47,40,38,33,27,82,60,33,29.92,29.74,10,3,17,0.00
2013-2-4,50,41,29,36,31,27,93,70,44,30.00,29.86,3,1,7,0.00
2013-2-5,69,53,39,49,40,33,91,67,27,29.91,29.78,8,2,16,0.00
2013-2-6,72,56,46,50,45,38,95,70,31,30.06,29.86,5,1,11,0.00
2013-2-7,59,52,44,55,50,42,99,91,72,30.05,29.57,8,2,15,0.83
2013-2-8,63,55,48,56,48,44,99,78,55,29.89,29.50,8,4,15,0.10
2013-2-9,63,48,37,47,31,20,90,58,23,30.21,29.89,6,1,11,0.00
2013-2-10,61,47,33,54,41,31,96,80,50,30.29,30.08,8,2,16,0.00
2013-2-11,66,61,56,62,59,53,97,93,85,30.11,29.87,6,2,16,0.58
2013-2-12,63,57,50,59,54,48,100,91,66,29.97,29.78,4,1,11,0.61
2013-2-13,66,55,48,61,51,47,100,88,61,29.79,29.52,9,3,16,0.13
2013-2-14,55,49,41,48,40,35,92,73,50,29.93,29.67,5,1,9,0.00
2013-2-15,60,46,34,43,38,33,98,76,38,29.95,29.81,5,1,11,0.00
2013-2-16,54,41,33,43,38,30,96,88,61,29.81,29.64,12,2,16,0.14
2013-2-17,42,33,27,31,22,11,92,65,31,30.14,29.81,13,5,22,0.00
2013-2-18,54,38,25,32,26,19,92,66,27,30.29,30.13,5,1,12,0.00
2013-2-19,63,50,33,55,45,30,98,86,57,30.13,29.80,7,2,14,0.06
2013-2-20,57,47,35,48,34,20,95,65,27,30.00,29.86,5,1,10,0.00
2013-2-21,60,46,35,42,32,21,92,64,28,30.05,29.94,5,1,10,0.00
2013-2-22,52,48,43,50,44,31,98,86,60,30.10,29.91,8,3,17,0.09
2013-2-23,49,46,43,49,46,42,100,99,98,29.91,29.61,6,1,10,0.49
2013-2-24,68,52,46,50,47,36,100,85,34,29.86,29.61,5,2,11,0.01
2013-2-25,46,44,42,44,38,34,96,79,65,30.00,29.81,6,2,12,0.00
2013-2-26,71,59,43,67,56,41,100,92,78,29.88,29.43,10,4,21,0.87
2013-2-27,59,53,48,56,42,35,92,67,49,29.71,29.52,10,4,13,0.00
2013-2-28,58,50,41,41,36,30,86,60,35,29.72,29.59,10,4,18,0.00
2013-3-1,43,41,39,35,32,30,79,70,64,29.77,29.71,3,0,7,0.00
2013-3-4,54,44,38,32,26,16,78,52,23,29.97,29.91,4,1,8,0.00
2013-3-5,65,53,39,54,42,32,91,67,41,29.97,29.50,9,3,17,0.00
2013-3-6,62,49,42,52,30,20,76,48,32,29.89,29.46,15,9,24,0.00
2013-3-7,58,46,35,35,30,28,76,55,34,30.05,29.89,8,3,14,0.00
2013-3-8,59,46,35,32,27,23,73,50,26,30.11,29.99,8,2,14,0.00
2013-3-9,66,49,36,42,34,28,87,58,30,30.15,30.07,5,1,11,0.00
2013-3-10,64,50,36,46,35,24,97,64,22,30.15,30.07,6,1,14,0.00
2013-3-11,71,58,43,58,50,39,97,78,52,30.08,29.78,7,2,15,0.00
2013-3-12,71,64,58,62,59,49,98,84,67,29.79,29.63,7,2,15,0.43
2013-3-13,63,54,44,48,34,22,74,49,22,29.95,29.76,10,2,15,0.00
2013-3-14,55,45,36,32,22,16,74,42,25,30.13,29.94,7,3,13,0.00
2013-3-15,60,48,32,44,34,19,93,62,27,30.07,29.86,7,2,13,0.00
2013-3-16,80,66,55,51,45,38,69,48,23,29.86,29.64,10,5,20,0.00
2013-3-17,78,66,57,57,50,43,70,56,34,29.89,29.76,7,3,14,0.00
2013-3-18,62,56,50,54,51,48,96,84,62,29.96,29.70,6,2,11,0.02
2013-3-19,71,59,51,56,50,37,99,77,31,29.84,29.65,9,3,14,0.03
2013-3-20,62,52,41,46,30,16,86,47,18,29.96,29.67,5,1,13,0.00
2013-3-21,54,46,38,37,22,10,92,45,19,29.80,29.59,12,4,18,0.00
2013-3-22,52,42,30,37,23,13,68,48,24,29.95,29.80,5,1,12,0.00
2013-3-23,50,46,40,46,42,36,94,86,67,29.91,29.75,4,0,7,0.24
2013-3-24,61,51,44,59,49,43,100,94,82,29.75,29.28,11,4,29,1.66
2013-3-25,53,47,43,44,33,23,96,61,33,29.75,29.41,14,7,22,0.00
2013-3-26,51,43,33,30,26,22,72,52,36,29.99,29.75,10,4,16,0.00
2013-3-27,56,44,33,32,27,20,86,55,28,30.09,29.99,9,2,15,0.00
2013-3-28,59,45,32,33,27,20,84,54,25,30.12,30.01,8,2,16,0.00
2013-3-29,60,48,33,40,33,25,89,59,33,30.19,30.07,6,2,15,0.00
2013-3-30,64,54,47,50,45,39,92,73,50,30.09,29.95,5,1,15,0.00
2013-3-31,74,63,50,58,54,48,96,75,51,29.95,29.73,9,3,20,0.34
2013-4-1,75,64,59,61,58,54,97,81,48,29.77,29.67,7,2,15,0.20
2013-4-2,63,57,50,54,42,31,89,60,35,30.01,29.77,6,2,15,0.00
2013-4-3,64,55,49,50,43,29,96,68,28,30.10,29.92,6,2,15,0.00
2013-4-4,59,53,49,59,49,39,99,86,62,30.11,29.66,11,5,25,0.94
2013-4-5,60,49,43,50,45,42,99,88,63,29.88,29.70,8,2,15,0.00
2013-4-6,66,54,42,51,44,38,99,74,37,30.11,29.88,8,2,20,0.00
2013-4-7,72,58,44,58,52,43,98,80,49,30.12,30.01,4,1,11,0.00
2013-4-8,77,65,52,62,57,51,99,79,52,30.05,29.98,6,1,15,0.00
2013-4-9,80,68,58,66,61,56,100,79,45,30.08,29.98,5,1,12,0.00
2013-4-10,79,69,60,64,62,58,98,79,52,30.02,29.89,7,2,18,0.00
2013-4-11,80,70,63,70,66,61,99,86,69,29.89,29.72,8,2,18,0.00
2013-4-12,81,71,66,70,68,64,99,90,68,29.73,29.56,8,4,19,0.90
2013-4-22,69,63,56,51,49,47,74,60,50,30.12,30.00,5,2,15,0.00
2013-4-23,68,57,51,56,51,48,92,80,61,30.06,29.98,4,1,18,0.00
2013-4-24,75,62,50,62,56,48,99,81,60,30.04,29.92,5,1,12,0.00
2013-4-25,78,66,60,68,62,58,97,87,61,30.10,29.93,5,1,13,0.84
2013-4-26,73,61,51,58,51,38,99,74,28,30.25,30.09,6,1,14,0.01
2013-4-27,75,63,54,59,52,42,97,72,34,30.20,30.09,6,1,17,0.00
2013-4-28,72,66,60,62,60,55,93,81,66,30.09,29.92,5,1,15,0.00
2013-4-29,72,66,62,66,63,60,99,92,78,29.93,29.82,3,0,13,1.63
2013-4-30,75,66,62,67,63,59,100,89,65,29.97,29.82,5,1,10,0.01
2013-5-1,75,65,58,63,59,56,95,83,59,30.04,29.93,4,1,14,0.00
2013-5-2,72,66,63,63,61,56,93,83,69,30.06,30.00,10,4,18,0.00
2013-5-3,68,62,57,60,54,41,90,75,49,30.00,29.92,12,4,25,0.00
2013-5-4,65,59,54,59,54,47,90,82,72,29.93,29.81,9,4,19,0.00
2013-5-5,72,64,59,64,60,55,98,86,65,29.82,29.70,9,5,21,0.14
2013-5-6,76,66,59,64,59,51,98,79,43,29.76,29.67,5,1,15,0.15
2013-5-7,70,61,54,58,54,49,93,80,54,29.82,29.74,3,0,8,0.08
2013-5-8,77,66,54,62,57,53,97,77,48,29.89,29.80,4,1,12,0.01
2013-5-9,84,70,60,66,61,58,91,74,47,29.94,29.84,2,0,13,0.00
2013-5-10,84,73,62,67,62,58,88,71,45,29.94,29.86,5,1,12,0.00
2013-5-11,84,75,70,71,65,54,89,73,40,29.88,29.71,3,1,11,0.00
2013-5-12,83,74,62,66,59,47,86,63,32,29.83,29.68,4,1,10,0.00
2013-5-13,74,63,53,52,42,35,79,49,26,29.99,29.83,3,1,12,0.00
2013-5-14,72,61,49,52,44,36,90,57,29,30.11,29.99,4,1,11,0.00
2013-5-15,86,71,59,64,57,52,87,63,37,30.01,29.84,5,2,15,0.00
2013-5-16,88,75,66,68,62,57,80,65,40,29.89,29.82,4,1,10,0.00
2013-5-17,88,76,65,68,64,60,90,69,40,29.97,29.87,4,1,9,0.00
2013-5-18,84,74,65,70,66,62,96,79,51,30.02,29.94,3,1,9,0.00
2013-5-19,82,74,71,71,68,64,94,82,59,30.01,29.93,3,1,12,0.00
2013-5-20,76,72,70,72,70,67,95,92,79,29.98,29.90,3,0,12,0.40
2013-5-21,79,73,70,73,70,68,98,90,72,29.94,29.84,3,0,8,0.39
2013-5-22,83,75,66,73,69,65,100,84,66,29.89,29.80,3,1,12,0.00
2013-5-23,82,73,67,74,69,64,99,89,68,29.83,29.70,7,0,13,0.74
2013-5-24,80,71,58,69,59,45,99,71,35,30.02,29.67,4,1,11,0.01
2013-5-25,79,63,49,56,46,34,87,58,22,30.15,30.01,1,0,11,0.00
2013-5-26,79,67,58,61,55,47,92,68,38,30.11,30.01,2,0,11,0.00
2013-5-27,80,70,60,65,62,59,98,77,57,30.12,30.04,3,1,11,0.00
2013-5-28,82,73,64,68,65,62,98,76,56,30.12,30.05,3,0,11,0.00
2013-5-29,83,74,65,70,66,63,97,77,55,30.13,30.02,4,0,11,0.00
2013-5-30,85,75,64,71,68,62,98,78,56,30.12,30.04,3,0,11,0.00
2013-5-31,84,76,68,73,70,67,97,80,63,30.09,30.00,2,0,11,0.00
2013-6-1,84,76,67,72,68,64,99,79,55,30.03,29.93,3,0,11,0.00
2013-6-2,84,77,70,73,71,68,96,83,68,29.97,29.81,5,1,14,0.00
2013-6-3,78,74,70,76,72,68,99,93,85,29.82,29.72,6,1,13,1.12
2013-6-4,84,75,69,75,71,68,100,88,64,29.90,29.76,3,0,11,0.00
2013-6-5,80,76,75,74,72,71,95,88,79,29.92,29.84,7,3,16,0.00
2013-6-6,79,75,72,76,73,71,100,93,83,29.85,29.61,4,1,16,1.61
2013-6-7,82,76,72,75,72,70,100,89,69,29.72,29.41,9,3,21,0.70
2013-6-8,88,80,75,76,73,69,94,80,56,29.95,29.71,5,1,21,0.00
2013-6-9,76,76,76,74,74,74,92,92,92,29.95,29.95,0,0,21,0.00
2013-6-11,88,80,74,74,73,70,97,79,58,29.87,29.76,3,1,10,0.42
2013-6-12,91,81,71,80,75,71,100,84,64,29.84,29.75,0,0,9,0.00
2013-6-13,96,83,78,78,69,-100,95,70,48,29.76,29.53,6,-33,17,0.00
2013-6-14,86,78,69,75,63,56,93,63,39,29.86,29.55,4,1,11,0.02
2013-6-15,83,74,63,68,60,50,95,66,32,30.00,29.86,3,0,11,0.00
2013-6-16,85,75,66,67,64,61,89,69,49,30.03,29.92,3,0,9,0.00
2013-6-17,86,78,70,75,70,65,93,79,60,29.94,29.82,5,1,12,0.00
2013-6-18,90,79,72,79,73,68,98,83,58,29.87,29.68,4,1,12,0.25
2013-6-19,80,77,72,76,72,69,96,86,73,29.92,29.72,4,0,11,0.06
2013-6-20,84,75,68,71,67,62,96,78,54,30.02,29.91,7,2,16,0.01
2013-6-21,84,74,64,73,67,59,96,79,64,30.04,29.97,3,0,9,0.04
2013-6-22,86,76,70,75,72,69,99,89,64,30.01,29.94,0,0,9,0.03
2013-6-23,86,77,71,78,73,70,98,88,70,30.05,30.00,1,0,9,0.10
2013-6-24,84,79,76,78,74,73,94,86,72,30.08,30.00,2,0,9,0.27
2013-6-25,88,80,75,77,74,72,98,83,64,30.02,29.90,4,1,10,0.00
2013-6-26,90,79,74,76,73,70,96,81,60,29.92,29.81,4,1,13,0.00
2013-6-27,92,80,74,78,74,66,96,82,56,29.86,29.64,4,1,13,0.00
2013-6-28,92,83,77,79,75,72,90,79,52,29.68,29.50,7,2,13,0.00
2013-6-29,86,79,73,78,73,70,94,83,66,29.63,29.52,5,1,14,0.06
2013-6-30,84,77,73,78,75,71,98,92,79,29.75,29.59,3,1,13,0.85
2013-7-1,81,76,72,78,74,71,100,95,81,29.90,29.69,5,1,14,2.93
2013-7-2,80,77,73,78,75,70,99,94,84,30.03,29.88,3,0,13,0.37
2013-7-3,86,80,75,78,76,73,99,88,72,30.09,30.00,4,1,14,0.00
2013-7-4,86,81,77,76,75,72,91,81,69,30.10,30.05,4,1,13,0.00
2013-7-5,86,81,77,79,75,73,92,82,71,30.11,30.04,3,1,11,0.03
2013-7-6,86,80,72,76,73,71,98,81,65,30.09,30.00,3,1,12,0.00
2013-7-7,87,80,73,76,72,70,97,80,61,30.05,29.96,3,0,11,0.00
2013-7-8,87,78,72,74,70,-100,98,80,62,30.04,29.98,0,-11,4,0.00
2013-7-9,88,80,72,75,73,71,97,80,61,30.04,29.95,1,0,4,0.00
2013-7-10,88,80,74,75,73,72,96,80,60,29.99,29.83,3,1,11,0.00
2013-7-11,88,80,74,76,73,69,94,80,56,29.87,29.75,4,1,13,0.00
2013-7-12,79,76,73,75,74,71,98,93,83,29.83,29.73,1,0,4,0.52
2013-7-13,86,78,73,77,74,72,99,89,69,29.96,29.80,3,0,10,0.11
2013-7-14,86,81,74,77,74,72,96,82,70,30.09,29.96,7,2,14,0.05
2013-7-15,86,56,78,78,18,-100,96,56,70,30.12,30.06,9,-317,12,0.18
2013-7-16,90,76,74,78,63,-100,99,75,58,30.13,30.04,2,-58,7,0.00
2013-7-17,92,68,71,79,52,-100,99,77,61,30.06,29.95,1,-119,4,0.66
2013-7-18,90,80,72,78,74,72,100,86,64,30.00,29.92,1,0,6,0.00
2013-7-19,88,80,73,76,74,72,99,82,62,29.99,29.87,3,0,13,0.00
2013-7-20,86,79,76,77,74,71,94,83,67,29.94,29.85,6,1,13,0.33
2013-7-21,86,78,74,77,73,71,93,85,70,29.90,29.80,4,1,12,0.00
2013-7-22,89,80,74,76,74,72,95,81,61,29.84,29.74,4,1,11,0.00
2013-7-23,89,80,75,74,73,71,91,78,60,29.76,29.63,3,1,13,0.00
2013-7-24,87,80,75,76,74,72,94,83,62,29.67,29.61,2,0,6,0.00
2013-7-25,89,79,72,76,73,70,97,82,58,29.84,29.62,2,0,6,0.00
2013-7-26,87,78,70,76,72,69,96,83,65,29.92,29.83,5,1,10,0.00
2013-7-27,87,79,72,75,72,70,97,82,63,29.90,29.78,2,0,10,0.00
2013-7-28,88,79,73,77,74,72,96,86,67,29.88,29.76,2,0,10,0.01
2013-7-29,89,75,72,79,66,-100,100,85,62,29.99,29.86,10,-43,10,1.28
2013-7-30,78,74,73,77,74,73,100,100,94,30.03,29.97,0,0,0,0.00
2013-9-12,90,83,75,73,70,67,85,66,51,29.87,29.72,0,0,2,0.00
2013-9-13,91,79,73,76,71,68,92,79,47,29.72,29.59,1,0,7,0.00
2013-9-14,84,75,68,69,65,61,85,71,57,29.92,29.65,4,1,11,0.00
2013-9-15,82,75,67,72,69,64,93,82,71,30.03,29.92,6,1,15,0.00
2013-9-16,87,70,72,77,56,-100,97,79,64,29.98,29.87,0,-94,3,0.16
2013-9-17,82,73,67,72,62,57,94,72,46,30.07,29.93,5,2,13,0.02
2013-9-18,79,67,58,63,58,53,89,73,49,30.08,29.99,3,0,10,0.00
2013-9-19,84,70,60,64,60,57,94,75,44,30.01,29.93,0,0,0,0.00
2013-9-20,85,72,62,67,64,61,97,77,48,29.94,29.81,0,0,0,0.00
2013-9-21,83,75,67,74,69,65,95,83,66,29.81,29.57,3,0,9,0.16
2013-9-22,78,72,67,72,68,64,97,86,74,29.71,29.52,3,0,11,0.61
2013-9-23,82,69,59,64,60,56,97,77,47,29.90,29.71,4,0,10,0.00
2013-9-24,80,66,57,61,57,52,95,76,43,29.92,29.79,4,0,10,0.00
2013-9-25,77,68,60,66,62,58,94,83,67,29.80,29.67,1,0,4,0.01
2013-9-26,80,68,62,65,62,57,97,81,48,29.81,29.67,2,0,7,0.29
2013-9-27,80,68,59,62,58,55,95,74,47,29.97,29.80,4,1,11,0.00
2013-9-28,79,67,60,62,58,55,88,75,53,30.00,29.93,3,1,10,0.00
2013-9-29,80,66,58,60,57,53,96,75,41,29.96,29.85,3,0,14,0.00
2013-9-30,79,65,55,64,58,53,96,80,47,29.92,29.83,2,0,5,0.00
2013-10-1,83,67,56,63,58,54,99,77,41,29.98,29.89,2,0,7,0.00
2013-10-2,86,70,58,66,61,57,98,77,46,29.99,29.91,0,0,0,0.00
2013-10-3,84,71,60,70,66,59,98,83,55,30.00,29.93,0,0,0,0.00
2013-10-4,87,73,66,73,68,64,99,86,51,29.99,29.92,0,0,3,0.00
2013-10-5,86,74,64,72,68,63,99,83,48,29.98,29.90,0,0,2,0.00
2013-10-6,83,74,67,75,70,66,99,88,71,29.91,29.80,2,0,10,0.01
2013-10-7,79,71,72,75,65,-100,98,89,85,29.80,29.67,3,-44,11,0.30
2013-10-8,72,63,57,72,62,56,100,95,89,29.93,29.72,5,2,15,0.41
2013-10-9,75,63,57,63,58,55,97,83,63,29.92,29.86,4,2,14,0.01
2013-10-10,69,63,59,60,57,54,89,80,67,29.87,29.80,3,1,11,0.00
2013-10-11,81,69,62,67,62,59,93,81,55,29.83,29.75,0,0,0,0.00
2013-10-12,84,71,64,66,63,61,95,79,47,29.91,29.78,0,0,0,0.00
2013-10-13,76,68,62,66,64,60,96,88,72,29.97,29.89,2,0,10,0.00
2013-10-14,78,70,67,66,65,62,90,82,65,29.98,29.90,4,1,13,0.00
2013-10-15,73,66,61,64,61,58,90,82,70,29.97,29.86,3,0,11,0.00
2013-10-16,75,68,62,65,63,60,94,86,67,29.89,29.81,0,0,0,0.00
2013-10-17,82,69,59,67,63,58,98,82,55,29.84,29.74,0,0,1,0.00
2013-10-18,80,70,64,71,67,63,97,91,75,29.84,29.75,0,0,3,0.02
2013-10-19,81,71,66,73,68,63,99,91,70,29.81,29.71,0,0,1,0.55
2013-10-20,71,64,56,64,56,52,92,77,55,29.94,29.75,3,0,10,0.00
2013-10-21,71,61,54,61,56,51,93,83,62,29.98,29.86,2,0,5,0.00
2013-10-22,68,62,59,63,59,56,97,90,74,29.87,29.70,0,0,0,0.11
2013-10-23,73,63,53,61,52,38,99,74,32,29.86,29.58,5,1,13,0.09
2013-10-24,67,53,42,47,39,32,91,63,34,30.04,29.85,2,0,6,0.00
2013-10-25,64,51,42,46,40,33,94,69,33,30.20,29.98,4,1,12,0.00
2013-10-26,68,50,36,48,39,33,92,71,37,30.20,29.98,2,0,6,0.00
2013-10-27,74,56,43,54,46,39,94,75,41,30.00,29.91,2,0,7,0.00
2013-10-28,76,61,51,60,55,50,97,83,49,30.12,29.98,0,0,1,0.00
2013-10-29,79,62,52,62,56,51,99,83,52,30.17,30.08,2,0,7,0.00
2013-10-30,80,63,53,63,57,51,98,83,47,30.17,30.04,0,0,3,0.00
2013-10-31,80,66,54,68,61,53,98,85,62,30.07,29.84,3,0,15,0.00
2013-11-1,80,74,70,70,68,66,94,81,62,29.84,29.60,7,2,21,0.12
2013-11-2,72,65,54,70,60,51,99,87,51,29.79,29.58,4,0,12,0.54
2013-11-3,69,55,46,51,44,38,92,70,34,30.15,29.79,3,0,12,0.00
2013-11-4,68,53,43,44,40,37,86,64,38,30.31,30.15,7,1,14,0.00
2013-11-5,68,54,43,59,49,37,93,84,72,30.29,30.18,4,0,10,0.01
2013-11-6,78,65,56,65,59,52,96,82,61,30.18,29.95,6,1,13,0.11
2013-11-7,75,66,58,66,63,49,99,90,69,29.95,29.77,3,0,11,0.26
2013-11-8,64,52,40,49,35,28,88,57,28,30.15,29.89,4,1,14,0.00
2013-11-9,67,51,37,51,43,34,91,76,45,30.20,30.06,1,0,5,0.00
2013-11-10,72,58,49,52,48,41,96,75,36,30.09,29.97,1,0,5,0.00
2013-11-11,68,54,45,47,40,32,92,65,36,30.16,30.01,4,1,9,0.00
2013-11-12,73,54,38,49,41,27,96,66,33,30.21,29.85,8,1,17,0.00
2013-11-13,52,39,30,31,24,18,84,59,28,30.35,30.20,6,1,20,0.00
2013-11-14,65,43,27,40,30,22,91,68,25,30.36,30.19,1,0,5,0.00
2013-11-15,63,53,39,60,50,36,96,89,75,30.19,30.02,4,1,10,0.00
2013-11-16,78,65,58,64,60,56,99,86,54,30.07,30.01,4,0,9,0.00
2013-11-17,74,64,54,68,62,53,98,94,77,30.04,29.84,2,0,6,0.03
2013-11-18,83,72,63,70,66,46,99,83,53,29.84,29.64,3,0,11,0.01
2013-11-19,65,55,46,47,34,28,69,47,27,30.08,29.75,4,0,14,0.00
2013-11-20,63,51,43,45,40,33,78,65,49,30.20,30.07,1,0,7,0.00
2013-11-21,72,58,49,60,52,44,95,80,61,30.24,30.17,1,0,5,0.00
2013-11-22,76,64,59,64,61,58,98,89,64,30.19,29.99,2,0,6,0.00
2013-11-23,66,61,54,64,59,41,99,94,64,29.99,29.86,3,0,9,0.10
2013-11-24,54,41,29,41,19,8,65,42,21,30.38,29.96,3,1,16,0.00
2013-11-25,52,38,27,33,19,6,78,48,24,30.43,30.13,2,0,6,0.00
2013-12-11,59,47,37,36,31,19,92,58,26,30.32,30.15,5,1,10,0.00
2013-12-12,56,42,31,37,28,17,93,65,24,30.25,30.11,4,1,17,0.00
2013-12-13,58,40,28,39,29,18,92,69,25,30.27,30.12,4,0,9,0.00
2013-12-14,69,59,43,67,55,39,98,87,70,30.12,29.62,8,2,16,0.37
2013-12-15,66,56,44,65,50,41,95,83,63,29.96,29.58,9,3,13,0.04
2013-12-16,63,46,34,44,38,31,96,78,36,30.06,29.96,3,0,9,0.00
2013-12-17,67,52,39,43,37,33,91,62,29,30.05,29.89,7,2,15,0.00
2013-12-18,59,48,34,37,31,22,87,55,27,30.17,29.90,5,1,11,0.00
2013-12-19,66,46,31,44,36,29,93,75,35,30.22,30.11,3,0,9,0.00
2013-12-20,75,58,45,60,53,42,97,83,52,30.11,30.00,5,1,12,0.00
2013-12-21,76,65,54,67,61,52,100,89,68,30.03,29.95,4,1,15,0.00
2013-12-22,81,72,64,69,66,61,98,83,62,29.98,29.92,8,3,19,0.00
2013-12-23,77,70,60,70,66,58,97,90,72,29.97,29.88,6,3,18,0.26
2013-12-24,60,50,38,59,43,32,98,80,49,30.25,29.90,5,1,11,0.06
2013-12-25,52,39,29,32,26,20,78,61,39,30.34,30.18,3,1,9,0.00
2013-12-26,47,41,35,41,36,28,92,82,73,30.18,30.08,3,0,9,0.01
2013-12-27,59,44,37,38,34,27,92,69,30,30.27,30.16,3,0,9,0.00
2013-12-28,66,48,32,53,37,24,94,70,24,30.25,29.92,4,1,12,0.20
2013-12-29,72,64,51,67,60,48,100,89,62,29.93,29.61,10,3,24,0.80
2013-12-30,57,50,45,49,47,44,99,91,71,30.00,29.80,3,0,9,0.00
2013-12-31,56,49,41,47,43,37,95,79,52,30.23,29.97,5,1,9,0.00
2014-1-1,51,44,38,45,40,35,96,86,55,30.24,30.00,2,0,9,0.13
2014-1-2,57,50,46,57,50,45,100,98,85,30.00,29.47,8,1,13,0.60